TITAN 3C TRANSTAGE R/B, 2770

Orbit data source: Space-Track

TITAN 3C TRANSTAGE R/B, 2770 is space debris in HEO originally from a launch on Fri, 28 Apr 1967 UTC launched from the Air Force Eastern Test Range (AFETR). Debris objects in space refer to the collection of defunct objects orbiting the Earth. Examples of debris include non-operational satellites, rocket bodies, and fragments generated from explosions, collisions, or faulty payload assembly.

Loading next visibility...
Identifier
2770, 1967-040F
Orbit
HEO
Last TLE update
in 14 hours
Origin
Manufacturer
Martin Marietta
Mission
Spacecraft
Bus & Motor
TRANSTAGE, Unknown motor
Mass
3,103 kg wet, 3,103 kg dry
Launch date (UTC)
1967-04-28 (58 years ago)
Launch vehicle
Unknown
Launch site
Air Force Eastern Test Range (AFETR)
Object type
Payload
Rocket body
Debris
Shape & HBR
Cyl + 2 Nozzle, 4.6 m
Radar Cross Section
14.974 m², Large (>1 m²)

Expand to show TLE details & history

TLE from in 14 hours
0 TITAN 3C TRANSTAGE R/B
1 02770U 67040F   25192.66820283 -.00000063  00000-0  00000-0 0  9997
2 02770  17.9535 217.0146 7819633 336.7028   0.0329  0.50947532 21579
Epoch: 2025-07-11T16:02Z
TLE epoch observation values (Epoch: 2025-07-11T16:02:12.724Z)
Latitude
-6.70062°
Longitude
25.46834°
Altitude
8,350.525 km
Speed
6.936 km/s
True Right ascension
13h 03m 21s
True Declination
-6° 40' 53"
Sunlit
Object was in daylight at epoch
Visualization orbit readout
Latitude
2.22027°
Longitude
-139.77433°
Altitude
96,476.42 km
Speed
1.316 km/s
Apparent Right ascension
02h 04m 08s
Apparent Declination
0° 02' 48"
Sunlit
Object is in daylight
Visualization observer readout
Local Sidereal Time
14:41:20
Azimuth
14.33° NNE
Elevation
-49.238°
Doppler factor
1
Orbital elements
Apogee altitude
111,626.989 km
Perigee altitude
8,060.684 km
Semi-major axis
66,221.973 km
Eccentricity
0.78196
Inclination
17.9535°
RAAN
217.0146°
Arg. of periapsis
336.7028°
True anomaly
Unknown
Mean anomaly
0.0329°
Eccentric anomaly
Unknown
Mean motion
0.12736 °/min
Orbital period
2,826.59 mins
BSTAR
0
Loading maneuver chart data...
Loading SW <> Apogee altitude chart data...
Loading historical data...
Loading historical data...
Loading historical data...
Loading historical data...
Loading historical data...
Loading historical data...
Loading historical data...

TITAN 3C TRANSTAGE R/B Visibility forecast

Observer location: undefined°, undefined°

Span
Click to sort rows by Start time (UTC) header in descending order
Start Az.
Max El. time (UTC)
Max El. Az.
Max El.
End time (UTC)
End Az.
99 mins2025-07-11 11:44:47.405Z115.227° SE2025-07-11 12:38:47.405Z121.311° SE11.427°2025-07-11 13:23:47.405Z124.82° SE
|